sat.trackr.live / text

‹ back to catalog

STARLINK-30124

NORAD 56690 · 2023-067C

PAYLOAD ACTIVE UNKNOWN

§ Identity

Operator
Country
US
Launch date
2023-05-19
Launch site
AFETR
Launch vehicle
Mass (kg)
RCS (m²)

Purposes: comms

External: N2YO · Heavens-Above · Gunter

§ Orbital elements

Epoch: 2026-05-25T05:17:01.372128Z

Period
94.27 min
Inclination
43.0044°
Eccentricity
0.0002186
Mean motion
15.27583882 rev/d
Perigee alt
481.5 km
Apogee alt
484.5 km
Semi-major
6,861.2 km
B*
7.1318e-5
RAAN
209.1239°
Arg perigee
270.5783°
Mean anomaly
89.4818°
Rev number
16,728

§ Raw data

STARLINK-301241 56690U 23067C   26145.22015477  .00001701  00000+0  71318-4 0  99922 56690  43.0044 209.1239 0002186 270.5783  89.4818 15.27583882167289

JSON: /api/v1/satellites/56690 · /tle

For live sub-satellite position, see the globe view (requires WebGL).

§ Visibility from observer

Set your observer location to see the next 7 days of passes ≥ 10°. The values pass through the URL so the page stays shareable.

No JS? Fill the form by hand. The geolocation button needs JavaScript.